Location: Lombard
(41.8800°N, 88.0080°W)
Time: 20:07:18
(UTC-05:00)

Transit 2A - Pass Details

Date: 08 February 2023
Orbit: 591 x 964 km, 66.7° (Epoch: 29 March)

Event Time Altitude Azimuth Distance (km) Brightness Sun altitude
Rises 17:37:58 0° 270° (W) 3,099 11.0 -4.7°
Reaches altitude 10° 17:41:34 10° 298° (WNW) 2,271 9.2 -5.4°
Maximum altitude 17:44:01 13° 326° (NNW) 2,112 8.6 -5.8°
Drops below altitude 10° 17:46:35 10° 354° (N) 2,397 8.5 -6.3°
Sets 17:50:37 0° 21° (NNE) 3,428 9.0 -7.0°
